Location: Bergheim
(50.9593°N, 6.6400°E)
Time: 18:33:39
(UTC+01:00)

ISS - Visible Passes

Search period start: 21 March 2019 00:00
Search period end: 31 March 2019 00:00
Orbit: 406 x 411 km, 51.6° (Epoch: 21 March)

Date Brightness Start Highest point End Pass type
(mag) Time Alt. Az. Time Alt. Az. Time Alt. Az.
21 Mar -1.5 20:28:13 10° S 20:28:51 13° S 20:28:51 13° S visible
22 Mar -1.7 19:38:20 10° SSE 19:39:47 12° SE 19:40:42 11° ESE visible
22 Mar -1.5 21:12:34 10° SW 21:13:28 17° SW 21:13:28 17° SW visible
23 Mar -3.1 20:21:44 10° SW 20:24:46 34° SSE 20:25:05 33° SE visible
24 Mar -2.4 19:31:08 10° SSW 19:33:50 23° SE 19:36:30 10° E visible
24 Mar -3.1 21:06:46 10° WSW 21:09:16 48° WSW 21:09:16 48° WSW visible
25 Mar -3.7 20:15:43 10° WSW 20:18:58 58° SSE 20:20:31 27° E visible
25 Mar -1.2 21:52:13 10° W 21:53:16 19° W 21:53:16 19° W visible
26 Mar -3.2 19:24:48 10° SW 19:27:55 41° SSE 19:31:04 10° E visible
26 Mar -3.9 21:01:04 10° W 21:04:23 82° N 21:04:24 82° N visible
27 Mar -3.9 20:09:55 10° WSW 20:13:14 86° SSE 20:15:26 19° E visible
27 Mar -1.7 21:46:33 10° W 21:48:10 26° WNW 21:48:10 26° WNW visible
28 Mar -3.8 20:55:22 10° W 20:58:41 77° N 20:59:07 62° ENE visible
29 Mar -3.8 20:04:10 10° W 20:07:29 79° N 20:10:01 16° E visible
29 Mar -2.2 21:40:47 10° WNW 21:42:45 33° W 21:42:45 33° W visible
30 Mar -3.9 20:49:37 10° W 20:52:56 87° NNE 20:53:37 53° E visible
30 Mar -0.5 22:26:15 10° W 22:26:20 10° W 22:26:20 10° W visible
